Flag for Pitcairn Islands

Past Weather in Adamstown, Pitcairn Islands — Yesterday and Last 2 Weeks

Now
67 °F

Mild.


Feels Like: 67 °F
Forecast: 69 / 66 °F
Wind: 7 mph from South

Location: Rikitea

Current Time: Jul 10, 2020 at 10:48:00 pm

Latest Report: Jul 10, 2020 at 10:00 pm


Visibility: N/A

Pressure: 30.23 "Hg

Humidity: 57%

Dew Point: 51 °F

Location of AdamstownLocation

Past Weather in Adamstown — Graph

°F

Adamstown Temperature Yesterday

Maximum temperature yesterday: 68 °F (at 12:00 pm)
Minimum temperature yesterday: 64 °F (at 7:00 am)
Average temperature yesterday: 65 °F

High & Low Weather Summary for the Past Weeks

 TemperatureHumidityPressure
High78 °F (Jul 6, 3:00 pm)96% (Jun 25, 11:00 pm)30.31 "Hg (Jun 25, 11:00 pm)
Low62 °F (Jun 28, 9:00 pm)47% (Jun 28, 2:00 pm)29.78 "Hg (Jun 26, 5:00 am)
Average68 °F71%30.10 "Hg
* Reported Jun 25 9:00 pm — Jul 10 9:00 pm, Adamstown. Weather by CustomWeather, © 2020

Note: Actual official high and low records may vary slightly from our data, if they occured in-between our weather recording intervals... More about our weather records

Adamstown Weather History for the Previous 24 Hours

Scroll right to see more
 ConditionsComfort  
Time TempWeatherWind HumidityBarometerVisibility
9:00 pm
Fri, Jul 10
67 °FMild.10 mph61%30.22 "HgN/A
8:00 pm67 °FMild.13 mph65%30.22 "HgN/A
7:00 pm67 °FMild.12 mph64%30.21 "HgN/A
6:00 pm67 °FPartly sunny.10 mph67%30.19 "Hg25 mi
5:00 pm67 °FPartly sunny.13 mph67%30.16 "Hg25 mi
4:00 pm68 °FPassing clouds.10 mph64%30.17 "Hg25 mi
3:00 pm70 °FPassing clouds.10 mph52%30.17 "Hg25 mi
2:00 pm69 °FPassing clouds.12 mph53%30.19 "Hg25 mi
1:00 pm69 °FScattered clouds.10 mph60%30.20 "Hg25 mi
12:00 pm69 °FPassing clouds.14 mph62%30.21 "Hg25 mi
11:00 am69 °FPassing clouds.13 mph59%30.22 "Hg25 mi
10:00 am67 °FPartly sunny.9 mph65%30.23 "Hg25 mi
9:00 am66 °FPassing clouds.8 mph65%30.22 "Hg25 mi
8:00 am66 °FPassing clouds.12 mph53%30.21 "Hg25 mi
7:00 am66 °FOvercast.12 mph57%30.19 "Hg19 mi
6:00 am66 °FMild.12 mph59%30.18 "HgN/A
5:00 am66 °FMild.9 mph55%30.18 "HgN/A
3:00 am65 °FMild.10 mph61%30.19 "HgN/A
2:00 am65 °FMild.7 mph55%30.20 "HgN/A
1:00 am65 °FMild.7 mph59%30.19 "HgN/A
12:00 am64 °FMild.8 mph65%30.19 "HgN/A
11:00 pm
Thu, Jul 9
64 °FMild.7 mph64%30.18 "HgN/A
10:00 pm65 °FMild.9 mph65%30.16 "HgN/A
Weather by CustomWeather, © 2020

See weather overview